User: anonymous   Login
Location: Clinton NY
(43.0598°N, 75.3602°W)
Time: 07:07:02
(UTC-04:00)
Language:

ISS - Orbit

View from above orbital plane
View from above orbital plane
View from above satellite
View from above satellite

Ground track
Ground track

The orbit data is extracted from the following two-line orbital elements,

1 25544U 98067A   18176.36625534  .00016717  00000-0  10270-3 0  9037
2 25544  51.6402 337.9431 0003719 233.8345 126.2464 15.53974297 39782
Epoch (UTC): 25 June 2018 08:47:24
Eccentricity: 0.0003719
inclination: 51.6402°
perigee height: 402 km
apogee height: 407 km
right ascension of ascending node: 337.9431°
argument of perigee: 233.8345°
revolutions per day: 15.53974297
mean anomaly at epoch: 126.2464°
orbit number at epoch: 3978

The dashed part of the orbit path shows where the satellite is in the earth's shadow,  

DLR